QPF
0.00 0.00 0.00 0.00 0.00 0.00 0.00 0.00 0.00 0.00 0.00 0.00 0.00 0.00 0.00 0.00 0.00 0.00 0.00 0.00 0.00 0.00 0.00 0.00 0.00 0.00 0.00 0.00 0.00 0.00 0.00 0.00 0.00 0.00 0.00 0.00 0.00 0.00 0.00 0.00 0.00 0.00 0.00 0.00 0.00 0.00 0.00
0.00 0.00 0.00 0.00 0.00 0.00 0.00 0.00 0.00 0.00 0.00 0.00 0.00 0.00 0.00 0.00 0.00 0.00 0.00 0.00 0.00 0.00 0.00 0.00 0.00 0.00 0.00 0.00 0.00 0.00 0.00 0.00 0.00 0.00 0.00 0.00 0.00 0.00 0.00 0.00 0.00 0.00 0.00 0.00 0.00 0.00 0.00
0.00 0.00 0.00 0.00 0.00 0.00 0.00 0.00 0.00 0.00 0.00 0.00 0.00 0.00 0.00 0.00 0.00 0.00 0.00 0.00 0.00 0.00 0.00 0.00 0.00 0.00 0.00 0.00 0.00 0.00 0.00 0.00 0.00 0.00 0.00 0.00 0.00 0.00 0.00 0.00 0.00 0.00 0.00 0.00 0.00 0.00 0.00
0.00 0.00 0.00 0.00 0.00 0.00 0.00 0.00 0.00 0.00 0.00 0.00 0.00 0.00 0.00 0.00 0.00 0.00 0.00 0.00 0.00 0.00 0.00 0.00 0.00 0.00 0.00 0.00 0.00 0.00 0.00 0.00 0.00 0.00 0.00 0.00 0.00 0.00 0.00 0.00 0.00 0.00 0.00 0.00 0.00 0.00 0.00
0.00 0.00 0.00 0.00 0.00 0.00 0.00 0.00 0.00 0.00 0.00 0.00 0.00 0.00 0.00 0.00 0.00 0.00 0.00 0.00 0.00 0.00 0.00 0.00 0.00 0.00 0.00 0.00 0.00 0.00 0.00 0.00 0.00 0.00 0.00 0.00 0.00 0.00 0.00 0.00 0.00 0.00 0.00 0.00 0.00 0.00 0.00
0.00 0.00 0.00 0.00 0.00 0.00 0.00 0.00 0.00 0.00 0.00 0.00 0.00 0.00 0.00 0.00 0.00 0.00 0.00 0.00 0.00 0.00 0.00 0.00 0.00 0.00 0.00 0.00 0.00 0.00 0.00 0.00 0.00 0.00 0.00 0.00 0.00 0.00 0.00 0.00 0.00 0.00 0.00 0.00 0.00 0.00 0.00
0.00 0.00 0.00 0.00 0.00 0.00 0.00 0.00 0.00 0.00 0.00 0.00 0.00 0.00 0.00 0.00 0.00 0.00 0.00 0.00 0.00 0.00 0.00 0.00 0.00 0.00 0.00 0.00 0.00 0.00 0.00 0.00 0.00 0.00 0.00 0.00 0.00 0.00 0.00 0.00 0.00 0.00 0.00 0.00 0.00 0.00 0.00
0.00 0.00 0.00 0.00 0.00 0.00 0.00 0.00 0.00 0.00 0.00 0.00 0.00 0.00 0.00 0.00 0.00 0.00 0.00 0.00 0.00 0.00 0.00 0.00 0.00 0.00 0.00 0.00 0.00 0.00 0.00 0.00 0.00 0.00 0.00 0.00 0.00 0.00 0.00 0.00 0.00 0.00 0.00 0.00 0.00 0.00 0.00
0.00 0.00 0.00 0.00 0.00 0.00 0.00 0.00 0.00 0.00 0.00 0.00 0.00 0.00 0.00 0.00 0.00 0.00 0.00 0.00 0.00 0.00 0.00 0.00 0.00 0.00 0.00 0.00 0.00 0.00 0.00 0.00 0.00 0.00 0.00 0.00 0.00 0.00 0.00 0.00 0.00 0.00 0.00 0.00 0.00 0.00 0.00
0.00 0.00 0.00 0.00 0.00 0.00 0.00 0.00 0.00 0.00 0.00 0.00 0.00 0.00 0.00 0.00 0.00 0.00 0.00 0.00 0.00 0.00 0.00 0.00 0.00 0.00 0.00 0.00 0.00 0.00 0.00 0.00 0.00 0.00 0.00 0.00 0.00 0.00 0.00 0.00 0.00 0.00 0.00 0.00 0.00 0.00 0.00
0.00 0.00 0.00 0.00 0.00 0.00 0.00 0.00 0.00 0.00 0.00 0.00 0.00 0.00 0.00 0.00 0.00 0.00 0.00 0.00 0.00 0.00 0.00 0.00 0.00 0.00 0.00 0.00 0.00 0.00 0.00 0.00 0.00 0.00 0.00 0.00 0.00 0.00 0.00 0.00 0.00 0.00 0.00 0.00 0.00 0.00 0.00
0.00 0.00 0.00 0.00 0.00 0.00 0.00 0.00 0.00 0.00 0.00 0.00 0.00 0.00 0.00 0.00 0.00 0.00 0.00 0.00 0.00 0.00 0.00 0.00 0.00 0.00 0.00 0.00 0.00 0.00 0.00 0.00 0.00 0.00 0.00 0.00 0.00 0.00 0.00 0.00 0.00 0.00 0.00 0.00 0.00 0.00 0.00
0.00 0.00 0.00 0.00 0.00 0.00 0.00 0.00 0.00 0.00 0.00 0.00 0.00 0.00 0.00 0.00 0.00 0.00 0.00 0.00 0.00 0.00 0.00 0.00 0.00 0.00 0.00 0.00 0.00 0.00 0.00 0.00 0.00 0.00 0.00 0.00 0.00 0.00 0.00 0.00 0.00 0.00 0.00 0.00 0.00 0.00 0.00
0.00 0.00 0.00 0.00 0.00 0.00 0.00 0.00 0.00 0.00 0.00 0.00 0.00 0.00 0.00 0.00 0.00 0.00 0.00 0.00 0.00 0.00 0.00 0.00 0.00 0.00 0.00 0.00 0.00 0.00 0.00 0.00 0.00 0.00 0.00 0.00 0.00 0.00 0.00 0.00 0.00 0.00 0.00 0.00 0.00 0.00 0.00
0.00 0.00 0.00 0.00 0.00 0.00 0.00 0.00 0.00 0.00 0.00 0.00 0.00 0.00 0.00 0.00 0.00 0.00 0.00 0.00 0.00 0.00 0.00 0.00 0.00 0.00 0.00 0.00 0.00 0.00 0.00 0.00 0.00 0.00 0.00 0.00 0.00 0.00 0.00 0.00 0.00 0.00 0.00 0.00 0.00 0.00 0.00
0.00 0.00 0.00 0.00 0.00 0.00 0.00 0.00 0.00 0.00 0.00 0.00 0.00 0.00 0.00 0.00 0.00 0.00 0.00 0.00 0.00 0.00 0.00 0.00 0.00 0.00 0.00 0.00 0.00 0.00 0.00 0.00 0.00 0.00 0.00 0.00 0.00 0.00 0.00 0.00 0.00 0.00 0.00 0.00 0.00 0.00 0.00
0.00 0.00 0.00 0.00 0.00 0.00 0.00 0.00 0.00 0.00 0.00 0.00 0.00 0.00 0.00 0.00 0.00 0.00 0.00 0.00 0.00 0.00 0.00 0.00 0.00 0.00 0.00 0.00 0.00 0.00 0.00 0.00 0.00 0.00 0.00 0.00 0.00 0.00 0.00 0.00 0.00 0.00 0.00 0.00 0.00 0.00 0.00
0.00 0.00 0.00 0.00 0.00 0.00 0.00 0.00 0.00 0.00 0.00 0.00 0.00 0.00 0.00 0.00 0.00 0.00 0.00 0.00 0.00 0.00 0.00 0.00 0.00 0.00 0.00 0.00 0.00 0.00 0.00 0.00 0.00 0.00 0.00 0.00 0.00 0.00 0.00 0.00 0.00 0.00 0.00 0.00 0.00 0.00 0.00
0.00 0.00 0.00 0.00 0.00 0.00 0.00 0.00 0.00 0.00 0.00 0.00 0.00 0.00 0.00 0.00 0.00 0.00 0.00 0.00 0.00 0.00 0.00 0.00 0.00 0.00 0.00 0.00 0.00 0.00 0.00 0.00 0.00 0.00 0.00 0.00 0.00 0.00 0.00 0.00 0.00 0.00 0.00 0.00 0.00 0.00 0.00
0.00 0.00 0.00 0.00 0.00 0.00 0.00 0.00 0.00 0.00 0.00 0.00 0.00 0.00 0.00 0.00 0.00 0.00 0.00 0.00 0.00 0.00 0.00 0.00 0.00 0.00 0.00 0.00 0.00 0.00 0.00 0.00 0.00 0.00 0.00 0.00 0.00 0.00 0.00 0.00 0.00 0.00 0.00 0.00 0.00 0.00 0.00
0.00 0.00 0.00 0.00 0.00 0.00 0.00 0.00 0.00 0.00 0.00 0.00 0.00 0.00 0.00 0.00 0.00 0.00 0.00 0.00 0.00 0.00 0.00 0.00 0.00 0.00 0.00 0.00 0.00 0.00 0.00 0.00 0.00 0.00 0.00 0.00 0.00 0.00 0.00 0.00 0.00 0.00 0.00 0.00 0.00 0.00 0.00
0.00 0.00 0.00 0.00 0.00 0.00 0.00 0.00 0.00 0.00 0.00 0.00 0.00 0.00 0.00 0.00 0.00 0.00 0.00 0.00 0.00 0.00 0.00 0.00 0.00 0.00 0.00 0.00 0.00 0.00 0.00 0.00 0.00 0.00 0.00 0.00 0.00 0.00 0.00 0.00 0.00 0.00 0.00 0.00 0.00 0.00 0.00
0.00 0.00 0.00 0.00 0.00 0.00 0.00 0.00 0.00 0.00 0.00 0.00 0.00 0.00 0.00 0.00 0.00 0.00 0.00 0.00 0.00 0.00 0.00 0.00 0.00 0.00 0.00 0.00 0.00 0.00 0.01 0.00 0.00 0.00 0.00 0.00 0.00 0.00 0.00 0.00 0.00 0.00 0.00 0.00 0.00 0.00 0.00
0.00 0.00 0.00 0.00 0.00 0.00 0.00 0.00 0.00 0.00 0.00 0.00 0.00 0.00 0.00 0.00 0.00 0.00 0.00 0.00 0.00 0.00 0.00 0.00 0.00 0.00 0.00 0.00 0.00 0.00 0.00 0.00 0.00 0.00 0.00 0.00 0.00 0.00 0.00 0.00 0.00 0.00 0.00 0.00 0.00 0.00 0.00
0.00 0.00 0.00 0.00 0.00 0.00 0.00 0.00 0.00 0.00 0.00 0.00 0.00 0.00 0.00 0.00 0.00 0.00 0.00 0.00 0.00 0.00 0.00 0.00 0.00 0.00 0.00 0.00 0.00 0.00 0.00 0.00 0.00 0.00 0.00 0.00 0.00 0.00 0.00 0.00 0.00 0.00 0.00 0.00 0.00 0.00 0.00
0.00 0.00 0.00 0.00 0.00 0.00 0.00 0.00 0.00 0.00 0.00 0.00 0.00 0.00 0.00 0.00 0.00 0.00 0.00 0.00 0.00 0.00 0.00 0.00 0.00 0.00 0.00 0.00 0.00 0.00 0.00 0.00 0.00 0.00 0.00 0.00 0.00 0.00 0.00 0.00 0.00 0.00 0.00 0.00 0.00 0.00 0.00
0.00 0.00 0.00 0.00 0.00 0.00 0.00 0.00 0.00 0.00 0.00 0.00 0.00 0.00 0.00 0.00 0.00 0.00 0.00 0.00 0.00 0.00 0.00 0.00 0.00 0.01 0.01 0.02 0.02 0.02 0.01 0.00 0.00 0.00 0.00 0.00 0.00 0.00 0.00 0.00 0.00 0.00 0.00 0.00 0.00 0.00 0.00
0.00 0.00 0.00 0.00 0.00 0.00 0.00 0.00 0.00 0.00 0.00 0.00 0.00 0.00 0.00 0.00 0.00 0.00 0.00 0.00 0.00 0.00 0.00 0.00 0.03 0.03 0.01 0.01 0.01 0.01 0.01 0.00 0.00 0.00 0.00 0.00 0.00 0.00 0.00 0.00 0.01 0.01 0.02 0.01 0.00 0.00 0.00
0.00 0.00 0.00 0.00 0.00 0.00 0.00 0.00 0.00 0.00 0.00 0.00 0.00 0.00 0.00 0.00 0.00 0.00 0.00 0.00 0.00 0.00 0.00 0.00 0.03 0.03 0.00 0.02 0.01 0.01 0.00 0.00 0.00 0.00 0.00 0.00 0.00 0.00 0.00 0.00 0.00 0.01 0.01 0.01 0.00 0.00 0.00
MSLP
1020.50 1020.13 1019.70 1019.32 1018.95 1018.52 1018.10 1017.67 1017.29 1016.93 1016.54 1016.13 1015.86 1015.49 1015.18 1014.89 1014.55 1014.27 1013.98 1013.77 1013.50 1013.23 1012.91 1012.61 1012.33 1012.01 1011.57 1010.70 1007.75 1004.93 1004.61 1004.48 1005.31 1005.94 1006.21 1006.27 1006.61 1006.44 1006.39 1005.78 1004.98 1004.73 1004.37 1003.93 1003.82 1003.96 1004.76
1020.59 1020.19 1019.79 1019.34 1018.93 1018.51 1018.21 1017.78 1017.29 1016.81 1016.42 1016.09 1015.75 1015.40 1015.15 1014.81 1014.41 1014.11 1013.83 1013.53 1013.27 1013.01 1012.74 1012.43 1012.16 1011.94 1011.53 1009.61 1005.63 1005.03 1004.97 1005.16 1005.51 1005.80 1006.00 1006.20 1006.20 1006.21 1006.07 1005.69 1005.49 1004.55 1004.00 1003.69 1003.44 1004.29 1004.56
1020.65 1020.25 1019.87 1019.42 1018.95 1018.58 1018.17 1017.75 1017.31 1016.84 1016.39 1015.96 1015.59 1015.25 1014.98 1014.64 1014.28 1013.95 1013.55 1013.24 1012.95 1012.67 1012.45 1012.27 1012.07 1011.78 1010.93 1007.26 1005.51 1005.34 1005.40 1005.27 1005.45 1005.63 1005.75 1006.02 1005.96 1006.31 1006.31 1005.89 1005.05 1004.36 1003.93 1003.63 1003.41 1004.04 1004.74
1020.67 1020.27 1019.83 1019.36 1018.91 1018.52 1018.15 1017.74 1017.27 1016.79 1016.30 1015.82 1015.41 1015.04 1014.72 1014.38 1013.97 1013.59 1013.19 1012.79 1012.51 1012.30 1012.15 1012.05 1011.92 1011.64 1009.29 1005.90 1005.59 1005.47 1005.29 1005.17 1005.27 1005.45 1005.87 1005.69 1005.91 1006.28 1006.37 1005.71 1005.22 1004.82 1004.47 1004.45 1003.79 1004.09 1004.68
1020.63 1020.19 1019.79 1019.38 1018.92 1018.45 1018.03 1017.65 1017.23 1016.77 1016.23 1015.72 1015.27 1014.84 1014.43 1014.07 1013.71 1013.22 1012.75 1012.20 1011.81 1011.83 1011.87 1011.84 1011.85 1011.21 1008.02 1005.51 1005.48 1004.47 1004.57 1004.94 1005.14 1005.36 1005.78 1005.58 1005.81 1006.31 1006.23 1006.32 1006.22 1006.01 1005.67 1005.16 1004.22 1003.68 1004.39
1020.61 1020.15 1019.65 1019.26 1018.77 1018.33 1017.89 1017.51 1017.11 1016.66 1016.17 1015.64 1015.15 1014.71 1014.26 1013.84 1013.50 1013.02 1012.38 1011.78 1011.49 1011.65 1011.77 1011.58 1011.16 1010.74 1007.10 1005.32 1004.49 1004.22 1004.39 1004.49 1004.89 1005.28 1005.65 1005.82 1006.21 1006.70 1007.05 1007.12 1007.19 1006.86 1006.38 1005.81 1004.95 1004.09 1004.49
1020.63 1020.11 1019.57 1019.07 1018.63 1018.15 1017.68 1017.29 1016.90 1016.47 1015.99 1015.51 1014.99 1014.53 1014.14 1013.67 1013.35 1013.09 1012.48 1011.94 1011.97 1011.66 1011.05 1009.41 1008.77 1007.84 1006.21 1004.95 1004.17 1003.86 1004.13 1004.34 1004.64 1005.21 1005.87 1006.25 1006.98 1006.85 1006.77 1007.12 1006.83 1006.65 1006.44 1006.08 1004.69 1003.97 1004.78
1020.57 1020.05 1019.50 1018.94 1018.46 1018.05 1017.62 1017.16 1016.70 1016.22 1015.71 1015.26 1014.77 1014.31 1013.91 1013.52 1013.17 1013.08 1013.23 1012.27 1010.35 1010.08 1009.33 1007.73 1007.51 1006.97 1005.95 1005.41 1005.11 1004.04 1003.89 1004.61 1004.91 1005.62 1006.07 1006.73 1006.72 1006.05 1006.44 1006.59 1006.67 1006.59 1006.43 1005.76 1004.92 1004.14 1005.05
1020.50 1019.94 1019.42 1018.90 1018.40 1017.96 1017.47 1016.97 1016.41 1015.89 1015.41 1014.94 1014.47 1014.04 1013.59 1013.27 1012.95 1013.05 1012.88 1011.26 1009.60 1009.39 1009.27 1006.87 1006.34 1005.77 1004.93 1005.05 1004.65 1004.03 1003.99 1004.46 1005.01 1005.70 1006.07 1006.50 1006.02 1005.97 1006.41 1006.23 1006.41 1006.02 1006.04 1005.55 1004.85 1004.94 1005.66
1020.43 1019.89 1019.31 1018.82 1018.32 1017.80 1017.27 1016.70 1016.15 1015.56 1014.99 1014.54 1014.16 1013.70 1013.27 1012.89 1013.24 1012.93 1011.85 1009.81 1009.24 1009.50 1009.37 1006.53 1005.51 1003.99 1004.09 1004.12 1003.86 1003.21 1003.48 1004.18 1004.90 1005.41 1006.19 1006.25 1005.70 1005.82 1005.90 1005.98 1006.10 1005.72 1004.69 1005.10 1004.96 1005.58 1006.71
1020.32 1019.81 1019.25 1018.69 1018.15 1017.55 1016.98 1016.43 1015.81 1015.18 1014.63 1014.19 1013.74 1013.33 1013.08 1013.03 1013.18 1012.55 1010.57 1010.12 1009.49 1009.27 1008.18 1004.96 1004.17 1002.91 1003.01 1003.58 1003.27 1003.08 1003.16 1003.81 1004.65 1005.23 1006.06 1005.96 1005.53 1005.63 1005.61 1005.07 1005.47 1005.14 1004.84 1005.31 1005.07 1006.45 1007.67
1020.20 1019.65 1019.08 1018.49 1017.91 1017.30 1016.65 1015.99 1015.43 1014.76 1014.22 1013.71 1013.18 1012.90 1012.83 1012.83 1012.88 1011.01 1010.28 1010.07 1009.76 1009.47 1006.85 1004.25 1003.25 1003.09 1003.46 1003.41 1003.29 1003.19 1003.42 1003.74 1004.28 1005.22 1005.75 1005.85 1005.32 1005.19 1004.75 1004.66 1004.93 1004.69 1005.09 1005.76 1006.62 1007.71 1009.11
1020.13 1019.52 1018.91 1018.34 1017.70 1017.03 1016.39 1015.69 1014.99 1014.30 1013.71 1013.09 1012.53 1012.38 1012.56 1012.03 1011.27 1010.38 1010.18 1010.01 1010.13 1008.55 1005.51 1004.11 1003.40 1003.23 1003.44 1003.75 1003.80 1003.65 1004.04 1004.54 1005.18 1006.01 1006.52 1006.04 1005.37 1004.65 1004.44 1004.51 1004.39 1005.03 1006.05 1007.11 1008.31 1009.40 1010.14
1020.03 1019.42 1018.83 1018.20 1017.53 1016.88 1016.17 1015.38 1014.61 1013.89 1013.10 1012.28 1011.58 1011.41 1011.39 1011.09 1010.56 1010.61 1010.00 1010.01 1009.51 1007.15 1005.41 1003.81 1003.28 1003.54 1003.75 1003.79 1004.03 1004.25 1004.67 1005.21 1005.66 1006.11 1006.99 1006.77 1005.57 1004.29 1004.05 1004.00 1004.16 1004.86 1006.01 1007.44 1009.01 1010.47 1010.59
1019.93 1019.37 1018.73 1018.06 1017.43 1016.71 1015.95 1015.09 1014.25 1013.45 1012.59 1011.52 1010.83 1011.08 1011.07 1009.55 1010.23 1010.81 1010.13 1009.95 1008.59 1006.86 1005.29 1004.34 1003.57 1003.75 1004.00 1003.91 1004.13 1004.53 1005.08 1005.38 1005.41 1005.76 1006.61 1006.66 1005.66 1004.22 1003.73 1003.64 1003.99 1004.77 1005.97 1006.73 1008.87 1010.75 1011.07
1019.79 1019.25 1018.63 1017.94 1017.26 1016.55 1015.77 1014.95 1014.13 1013.14 1012.12 1011.21 1010.85 1010.67 1009.82 1008.92 1009.58 1010.13 1010.07 1009.54 1008.27 1006.49 1005.08 1004.26 1004.27 1004.02 1004.12 1004.27 1004.56 1004.62 1004.93 1004.32 1004.59 1004.71 1005.06 1005.93 1005.90 1004.29 1003.60 1003.37 1003.59 1004.23 1005.19 1006.94 1008.79 1010.67 1011.49
1019.73 1019.13 1018.49 1017.84 1017.15 1016.40 1015.61 1014.77 1013.90 1012.95 1011.75 1010.72 1010.63 1010.15 1009.41 1009.05 1009.32 1009.77 1010.31 1009.50 1007.89 1006.21 1005.40 1004.87 1004.67 1004.35 1003.85 1003.89 1004.02 1004.59 1004.33 1003.60 1003.29 1003.85 1004.65 1005.77 1006.03 1004.91 1004.10 1003.93 1003.88 1004.44 1005.31 1006.81 1008.36 1009.47 1010.63
1019.65 1019.06 1018.43 1017.78 1017.11 1016.31 1015.54 1014.78 1013.98 1013.07 1011.85 1010.91 1010.87 1010.32 1009.49 1009.70 1009.87 1010.73 1010.31 1008.83 1007.46 1006.23 1005.59 1005.30 1004.35 1004.25 1003.83 1003.55 1003.66 1003.80 1003.64 1002.56 1001.97 1002.98 1004.52 1005.06 1005.85 1005.75 1004.87 1003.95 1003.81 1004.17 1004.77 1005.87 1007.87 1009.49 1009.86
1019.57 1018.98 1018.38 1017.73 1017.04 1016.27 1015.49 1014.71 1013.91 1013.19 1012.71 1012.38 1011.54 1010.75 1009.65 1009.47 1010.23 1010.53 1009.62 1008.43 1007.44 1006.18 1005.29 1004.55 1004.00 1003.64 1003.38 1003.86 1004.05 1003.50 1002.87 1001.57 1001.95 1002.75 1003.01 1004.57 1005.49 1005.81 1005.17 1004.43 1003.74 1003.93 1004.17 1004.82 1006.00 1007.67 1009.08
1019.49 1018.90 1018.32 1017.69 1017.02 1016.28 1015.45 1014.65 1013.80 1012.96 1012.07 1012.19 1011.65 1011.20 1010.65 1010.11 1010.11 1009.86 1009.39 1008.05 1006.97 1005.65 1004.71 1004.23 1003.67 1003.43 1003.82 1004.12 1004.33 1004.15 1003.59 1002.70 1002.62 1002.42 1002.70 1003.23 1004.95 1005.33 1005.33 1004.63 1003.91 1003.85 1003.81 1004.34 1005.08 1007.08 1007.83
1019.43 1018.88 1018.28 1017.65 1017.03 1016.33 1015.54 1014.73 1013.90 1013.01 1012.19 1012.17 1011.65 1011.26 1010.34 1010.38 1009.97 1009.42 1008.94 1008.03 1007.11 1005.95 1004.71 1004.32 1003.95 1004.02 1004.17 1004.57 1004.79 1004.64 1004.54 1004.13 1003.28 1003.59 1003.37 1003.53 1004.87 1004.81 1004.23 1003.97 1003.77 1003.45 1003.43 1003.98 1004.74 1005.43 1006.29
1019.42 1018.82 1018.23 1017.63 1017.02 1016.33 1015.59 1014.87 1014.11 1013.21 1012.40 1012.41 1012.00 1011.58 1010.59 1010.07 1009.34 1008.97 1008.53 1007.84 1006.91 1005.90 1005.45 1004.63 1004.33 1004.61 1004.75 1005.03 1004.44 1004.97 1005.25 1005.49 1005.61 1004.57 1004.85 1004.57 1004.60 1004.80 1004.75 1004.13 1003.90 1003.60 1003.63 1003.87 1004.24 1004.75 1005.34
1019.34 1018.76 1018.20 1017.62 1017.01 1016.31 1015.65 1015.00 1014.36 1013.70 1012.82 1012.97 1012.32 1011.55 1011.20 1010.22 1009.56 1008.90 1008.34 1007.47 1006.51 1005.99 1005.25 1005.01 1004.79 1004.97 1005.02 1005.44 1005.34 1005.90 1005.94 1006.30 1006.36 1006.41 1006.34 1005.97 1005.52 1005.64 1005.48 1004.68 1004.51 1004.24 1003.90 1003.96 1004.16 1004.51 1004.74
1019.25 1018.69 1018.13 1017.58 1016.95 1016.29 1015.68 1015.12 1014.64 1014.28 1014.19 1014.22 1013.55 1012.95 1012.10 1010.94 1009.88 1008.84 1008.01 1007.29 1006.53 1006.07 1005.56 1005.15 1004.94 1005.06 1005.43 1005.36 1005.63 1006.21 1006.46 1005.71 1006.42 1006.65 1006.99 1006.52 1006.31 1006.19 1006.34 1005.68 1005.55 1004.63 1004.15 1004.01 1004.37 1004.85 1004.79
1019.13 1018.59 1018.08 1017.50 1016.91 1016.29 1015.68 1015.13 1014.71 1014.41 1014.23 1014.14 1013.78 1013.42 1012.71 1011.62 1010.05 1008.70 1007.93 1007.24 1006.71 1006.35 1006.14 1005.64 1005.23 1005.08 1005.06 1005.36 1006.32 1006.79 1007.23 1006.53 1007.14 1007.35 1007.07 1006.62 1006.29 1007.20 1007.07 1006.77 1006.21 1005.36 1004.88 1004.68 1004.55 1005.01 1004.80
1018.97 1018.45 1017.88 1017.27 1016.69 1016.15 1015.58 1015.07 1014.63 1014.29 1014.07 1013.80 1013.63 1013.29 1012.94 1012.17 1009.81 1008.68 1007.83 1007.07 1006.83 1006.54 1006.35 1006.15 1005.77 1005.75 1005.61 1006.43 1007.41 1008.43 1008.90 1008.67 1008.53 1008.02 1007.27 1006.91 1006.38 1007.02 1007.69 1006.97 1006.72 1005.88 1005.45 1005.55 1005.44 1004.96 1004.18
1018.79 1018.22 1017.67 1017.09 1016.50 1015.97 1015.43 1014.99 1014.53 1014.14 1013.90 1013.81 1013.39 1013.13 1012.83 1012.14 1009.62 1008.60 1007.87 1006.97 1006.33 1006.39 1006.52 1006.42 1006.24 1006.18 1006.09 1007.72 1008.55 1009.02 1009.29 1009.37 1009.31 1008.85 1008.49 1008.33 1008.17 1008.01 1007.91 1007.33 1006.78 1006.03 1005.96 1006.02 1006.29 1005.44 1004.21
1018.60 1017.99 1017.46 1016.91 1016.32 1015.78 1015.27 1014.81 1014.39 1013.99 1013.66 1013.54 1013.11 1012.71 1012.61 1012.01 1009.89 1008.13 1007.39 1006.77 1006.37 1006.38 1006.52 1006.32 1006.76 1006.71 1007.18 1008.02 1008.74 1009.11 1009.36 1009.39 1009.23 1008.96 1008.79 1008.43 1008.51 1008.63 1008.17 1007.51 1007.15 1006.02 1005.89 1006.59 1006.41 1005.43 1004.97
1018.45 1017.87 1017.28 1016.68 1016.08 1015.53 1014.99 1014.57 1014.17 1013.79 1013.51 1013.31 1013.37 1012.48 1012.45 1012.47 1009.65 1007.68 1006.50 1005.93 1005.85 1005.62 1006.10 1006.01 1006.26 1006.19 1006.60 1007.77 1008.27 1008.61 1009.08 1009.06 1009.27 1009.47 1008.77 1008.69 1008.11 1007.79 1007.57 1006.78 1006.17 1006.01 1005.63 1005.90 1006.22 1006.05 1005.54
Thickness
5673 5675 5678 5681 5685 5689 5693 5698 5703 5708 5714 5719 5724 5730 5735 5739 5745 5749 5754 5757 5761 5765 5770 5773 5776 5780 5784 5785 5797 5842 5846 5849 5840 5832 5820 5815 5804 5803 5792 5805 5818 5814 5824 5833 5836 5839 5830
5667 5669 5671 5674 5678 5682 5686 5690 5696 5702 5708 5714 5719 5725 5730 5735 5741 5746 5751 5756 5760 5764 5768 5772 5775 5777 5780 5774 5831 5838 5840 5838 5833 5827 5820 5816 5811 5813 5803 5807 5803 5823 5828 5832 5837 5829 5831
5660 5662 5664 5668 5671 5674 5678 5683 5688 5694 5701 5708 5714 5720 5725 5731 5737 5743 5749 5754 5758 5763 5768 5771 5773 5776 5777 5795 5831 5834 5834 5832 5832 5827 5817 5820 5822 5809 5805 5800 5823 5824 5816 5825 5833 5830 5821
5654 5655 5658 5661 5664 5667 5669 5674 5680 5686 5694 5701 5709 5715 5722 5728 5734 5741 5747 5753 5758 5762 5766 5769 5771 5773 5780 5824 5825 5827 5831 5829 5832 5830 5823 5827 5825 5812 5805 5817 5814 5807 5809 5787 5822 5825 5824
5647 5650 5652 5654 5657 5660 5663 5665 5671 5678 5686 5694 5702 5710 5718 5724 5731 5738 5746 5753 5759 5762 5765 5767 5769 5772 5783 5824 5815 5833 5834 5823 5825 5824 5821 5829 5820 5802 5806 5791 5778 5785 5773 5785 5801 5830 5820
5642 5643 5646 5648 5651 5654 5657 5660 5663 5670 5677 5687 5695 5704 5712 5720 5727 5734 5744 5752 5758 5761 5762 5765 5770 5767 5799 5807 5823 5830 5833 5830 5818 5814 5809 5808 5796 5783 5779 5772 5747 5766 5768 5780 5784 5818 5818
5637 5639 5641 5644 5647 5649 5652 5655 5659 5664 5671 5679 5689 5698 5706 5715 5722 5728 5738 5746 5751 5755 5760 5771 5779 5785 5800 5816 5827 5824 5829 5823 5818 5807 5782 5794 5772 5765 5777 5782 5788 5785 5779 5772 5799 5826 5812
5635 5636 5638 5640 5642 5644 5646 5649 5654 5659 5666 5674 5683 5692 5701 5709 5717 5722 5726 5739 5757 5762 5757 5782 5784 5786 5799 5807 5793 5813 5828 5803 5799 5779 5787 5776 5761 5788 5791 5792 5788 5784 5776 5778 5805 5821 5812
5632 5633 5634 5635 5636 5638 5640 5644 5649 5655 5663 5671 5679 5688 5697 5705 5713 5717 5720 5740 5760 5764 5749 5776 5785 5788 5799 5803 5793 5799 5814 5804 5792 5780 5779 5764 5781 5796 5787 5786 5782 5784 5776 5782 5792 5805 5806
5629 5629 5630 5630 5631 5632 5635 5640 5645 5652 5660 5668 5676 5685 5694 5702 5707 5713 5727 5750 5757 5758 5725 5760 5778 5794 5804 5805 5793 5819 5819 5805 5792 5776 5776 5773 5791 5788 5783 5780 5783 5766 5806 5801 5801 5785 5757
5626 5626 5626 5626 5627 5630 5632 5637 5644 5650 5658 5666 5674 5683 5691 5696 5700 5711 5736 5742 5751 5751 5707 5777 5777 5816 5807 5793 5801 5806 5819 5805 5782 5782 5776 5768 5784 5778 5775 5788 5796 5783 5806 5799 5807 5779 5769
5624 5625 5625 5625 5626 5629 5632 5637 5644 5650 5658 5666 5675 5682 5688 5693 5699 5719 5731 5737 5740 5713 5705 5767 5784 5781 5781 5788 5794 5801 5801 5809 5801 5783 5783 5775 5796 5791 5791 5800 5799 5807 5798 5784 5774 5761 5735
5622 5623 5624 5624 5626 5628 5632 5637 5644 5651 5659 5668 5677 5683 5687 5695 5710 5720 5727 5731 5701 5692 5757 5762 5766 5774 5773 5767 5776 5784 5777 5770 5758 5745 5747 5765 5776 5796 5803 5787 5800 5790 5766 5730 5735 5725 5726
5621 5623 5624 5625 5626 5629 5632 5638 5644 5652 5662 5672 5682 5688 5693 5700 5709 5715 5724 5712 5696 5726 5736 5766 5768 5763 5757 5766 5769 5769 5761 5752 5765 5759 5736 5734 5739 5786 5802 5793 5784 5779 5768 5731 5723 5716 5731
5620 5622 5624 5626 5627 5630 5634 5640 5647 5656 5665 5676 5686 5688 5692 5709 5708 5708 5714 5687 5700 5719 5748 5748 5759 5750 5751 5762 5763 5762 5752 5748 5761 5763 5742 5729 5745 5793 5803 5807 5798 5784 5764 5779 5731 5725 5720
5620 5622 5624 5627 5629 5632 5636 5642 5649 5658 5668 5678 5684 5689 5701 5711 5710 5709 5697 5690 5707 5731 5745 5749 5736 5752 5735 5746 5748 5745 5742 5769 5767 5775 5778 5763 5742 5783 5798 5807 5806 5791 5791 5757 5736 5716 5716
5619 5622 5625 5627 5631 5634 5639 5644 5651 5659 5670 5680 5685 5694 5701 5705 5707 5698 5681 5688 5711 5733 5741 5733 5735 5740 5747 5747 5745 5738 5750 5774 5784 5779 5777 5760 5750 5765 5791 5781 5779 5778 5768 5757 5749 5736 5716
5619 5621 5624 5628 5631 5635 5639 5644 5650 5657 5667 5676 5678 5682 5696 5696 5683 5669 5679 5697 5716 5723 5735 5731 5742 5742 5747 5752 5755 5745 5752 5774 5800 5786 5763 5767 5744 5737 5757 5789 5798 5791 5777 5769 5738 5735 5726
5618 5621 5624 5627 5631 5635 5640 5645 5650 5656 5660 5664 5676 5678 5691 5693 5666 5670 5686 5701 5713 5720 5726 5735 5742 5754 5760 5749 5743 5756 5765 5795 5797 5783 5775 5767 5739 5727 5744 5765 5791 5784 5784 5778 5762 5744 5726
5617 5620 5623 5626 5630 5635 5640 5645 5651 5658 5665 5666 5674 5671 5675 5679 5673 5678 5685 5692 5703 5728 5731 5740 5745 5753 5748 5742 5747 5747 5753 5777 5783 5790 5792 5790 5740 5746 5742 5752 5777 5779 5790 5784 5771 5735 5738
5616 5619 5622 5626 5629 5633 5638 5644 5650 5656 5663 5663 5671 5674 5678 5665 5672 5678 5685 5692 5696 5705 5730 5736 5741 5740 5741 5736 5739 5743 5750 5757 5778 5774 5779 5779 5748 5750 5766 5775 5779 5785 5789 5784 5777 5764 5760
5615 5618 5621 5624 5628 5632 5636 5641 5647 5654 5660 5663 5668 5667 5671 5672 5680 5682 5673 5688 5698 5707 5716 5725 5731 5735 5737 5733 5747 5742 5745 5746 5744 5762 5757 5762 5754 5763 5765 5771 5770 5778 5778 5782 5782 5771 5769
5613 5616 5619 5623 5626 5630 5634 5639 5643 5648 5655 5652 5658 5665 5667 5673 5675 5677 5678 5692 5705 5709 5724 5727 5731 5729 5733 5734 5744 5738 5741 5738 5744 5743 5744 5749 5747 5743 5744 5765 5765 5752 5768 5772 5778 5779 5777
5613 5615 5618 5622 5626 5630 5633 5636 5639 5641 5641 5640 5643 5650 5658 5667 5670 5678 5688 5697 5703 5710 5714 5726 5730 5728 5735 5745 5743 5741 5736 5745 5744 5743 5736 5746 5740 5731 5730 5743 5721 5754 5775 5777 5772 5769 5775
5613 5615 5618 5621 5624 5628 5631 5634 5636 5638 5638 5638 5640 5645 5651 5654 5667 5681 5685 5693 5699 5706 5707 5715 5725 5735 5740 5736 5720 5714 5713 5732 5734 5735 5737 5740 5741 5722 5723 5712 5734 5749 5761 5767 5770 5764 5776
5613 5615 5618 5621 5624 5627 5629 5632 5634 5636 5637 5638 5638 5641 5644 5648 5666 5680 5682 5693 5690 5694 5701 5707 5720 5722 5727 5709 5704 5692 5687 5697 5706 5719 5736 5735 5741 5735 5716 5726 5709 5735 5758 5763 5765 5743 5785
5614 5616 5618 5621 5623 5626 5628 5629 5632 5634 5635 5635 5638 5641 5643 5647 5665 5677 5674 5682 5696 5693 5688 5694 5705 5710 5714 5690 5686 5683 5686 5694 5691 5702 5710 5708 5712 5714 5709 5711 5720 5743 5749 5754 5734 5748 5782
5615 5617 5619 5621 5624 5626 5628 5629 5630 5632 5634 5635 5638 5641 5643 5646 5662 5680 5686 5685 5688 5686 5683 5693 5689 5695 5692 5685 5684 5682 5683 5686 5691 5701 5702 5706 5702 5703 5702 5703 5698 5740 5746 5735 5740 5758 5765
5616 5618 5620 5622 5624 5626 5628 5629 5630 5631 5633 5633 5632 5639 5639 5640 5663 5682 5692 5697 5694 5696 5687 5688 5691 5697 5696 5684 5686 5686 5684 5685 5685 5682 5703 5696 5706 5705 5711 5714 5730 5737 5742 5745 5742 5745 5756